STARLINK-32794, 62844

Orbit data source: Space-Track

STARLINK-32794, 62844 is a payload satellite owned by SpaceX/Seattle (US) in LEO that was launched on Mon, 27 Jan 2025 UTC via an FALCON 9 launch vehicle from the Air Force Eastern Test Range (AFETR). Payload-class satellites include a variety of spacecraft equipped with specific instruments for various scientific and technological missions. These include communications satellites like Starlink; space stations such as the ISS; scientific satellites like the Hubble; Earth observation satellites from companies like Planet Labs, Umbra, and HawkEye 360; GPS; miniature CubeSats for education and research; and military/defense satellites.

Loading next visibility...
Identifier
62844, 2025-019R
Orbit
LEO
Last TLE update
16 hours ago
Origin
Manufacturer
SpaceX/Seattle
Mission
Operational Commercial Communications
Bus & Motor
STARLINK V2M, Unknown motor
Mass
730 kg wet, ~700 kg dry
Launch date (UTC)
2025-01-27 (5 months ago)
Launch vehicle
FALCON 9
Launch site
Air Force Eastern Test Range (AFETR)
Object type
Payload
Rocket body
Debris
Shape & HBR
Box + 2 Pan, 29 m
Radar Cross Section
33.884 m², Large (>1 m²)

Expand to show TLE details & history

TLE from 16 hours ago
0 STARLINK-32794
1 62844U 25019R   25186.04421551  .00015769  00000-0  58096-3 0  9994
2 62844  43.0026  47.8148 0001198 265.3124  94.7591 15.27601881 24960
Epoch: 2025-07-05T01:03Z
TLE epoch observation values (Epoch: 2025-07-05T01:03:40.22Z)
Latitude
0.00001°
Longitude
108.60931°
Altitude
482.828 km
Speed
7.626 km/s
True Right ascension
03h 11m 15s
True Declination
0° 00' 00"
Sunlit
Object was in daylight at epoch
Visualization orbit readout
Latitude
41.87195°
Longitude
177.7445°
Altitude
486.591 km
Speed
7.627 km/s
Apparent Right ascension
12h 11m 04s
Apparent Declination
7° 47' 03"
Sunlit
Object is in daylight
Visualization observer readout
Local Sidereal Time
05:00:43
Azimuth
72.6° E
Elevation
-8.204°
Doppler factor
1
Orbital elements
Apogee altitude
485.751 km
Perigee altitude
484.106 km
Semi-major axis
6,863.065 km
Eccentricity
0.00012
Inclination
43.0026°
RAAN
47.8148°
Arg. of periapsis
265.3124°
True anomaly
Unknown
Mean anomaly
94.7591°
Eccentric anomaly
Unknown
Mean motion
3.81739 °/min
Orbital period
94.31 mins
BSTAR
0.00058096
Loading maneuver chart data...
Loading SW <> Apogee altitude chart data...
Loading historical data...
Loading historical data...
Loading historical data...
Loading historical data...
Loading historical data...
Loading historical data...
Loading historical data...

STARLINK-32794 Visibility forecast

Observer location: undefined°, undefined°

Span
Click to sort rows by Start time (UTC) header in descending order
Start Az.
Max El. time (UTC)
Max El. Az.
Max El.
End time (UTC)
End Az.
7 mins2025-07-05 18:32:25.186Z233.707° WSW2025-07-05 18:35:25.186Z190.783° SSW38.167°2025-07-05 18:39:25.186Z76.772° E
6 mins2025-07-05 20:12:25.186Z278.116° WNW2025-07-05 20:14:25.186Z318.453° NNW37.896°2025-07-05 20:18:25.186Z71.512° E
5 mins2025-07-05 21:52:25.186Z299.47° NW2025-07-05 21:54:25.186Z36.784° NE40.478°2025-07-05 21:57:25.186Z90.87° ESE
5 mins2025-07-05 23:31:25.186Z264.332° W2025-07-05 23:33:25.186Z187.245° SSW34.655°2025-07-05 23:36:25.186Z134.689° SE
|